Date String (YYYY-MM-DD hh:mm:ss) UTC,Instrument flags,Ambient pressure (hPa),Sample flow (lpm),Bypass flow (lpm),Sample temperature (°C),Ambient temperature (°C),ASC tube jacket temperature (°C),LED temperature (°C),Box temperature (°C),Sample RH (%),Span deviation,Mass concentration (μg/m³),Mass concentration (μg/m³),Mass concentration (μg/m³)
DateTimeUTC,F1_M11,P_M11,Q1_M11,Q2_M11,T1_M11,T2_M11,T3_M11,T4_M11,T5_M11,U1_M11,ZSPAN_M11,X2_M11,X0_M11,X1_M11
2021-09-24 14:00:00,,0832.9,5.00,0.00,30.2,29.3,00.0,39.4,32.0,13.5,0002.0,0009.95,0022.13,0008.93
2021-09-24 14:01:00,,0832.9,5.01,0.00,30.2,29.3,00.0,39.4,32.0,13.4,0002.2,0009.83,0021.17,0008.85
2021-09-24 14:02:00,,0832.8,5.00,0.00,30.2,29.3,00.0,39.4,32.0,13.3,0002.3,0009.78,0021.70,0008.77
2021-09-24 14:03:00,,0832.8,5.00,0.00,30.2,29.3,00.0,39.4,32.0,13.2,0002.8,0009.79,0021.62,0008.71
2021-09-24 14:04:00,,0832.8,5.01,0.00,30.3,29.3,00.0,39.4,32.0,13.2,0002.9,0009.72,0021.03,0008.60
2021-09-24 14:05:00,,0832.8,4.99,0.00,30.2,29.3,00.0,39.4,32.0,13.2,0002.7,0009.57,0019.81,0008.47
2021-09-24 14:06:00,,0832.9,5.00,0.00,30.3,29.3,00.0,39.4,32.0,13.2,0002.5,0009.41,0019.60,0008.33
2021-09-24 14:07:00,,0832.9,5.01,0.00,30.3,29.3,00.0,39.4,32.0,13.2,0002.5,0009.24,0018.97,0008.18
2021-09-24 14:08:00,,0833.0,5.00,0.00,30.3,29.3,00.0,39.4,32.0,13.2,0002.5,0009.06,0018.62,0008.01
2021-09-24 14:09:00,,0833.0,4.97,0.00,30.3,29.3,00.0,39.4,32.0,13.3,0002.6,0008.86,0018.00,0007.81
2021-09-24 14:10:00,,0833.1,5.01,0.00,30.3,29.4,00.0,39.4,32.0,13.3,0002.5,0008.62,0017.84,0007.56
2021-09-24 14:11:00,,0833.0,5.00,0.00,30.3,29.4,00.0,39.4,32.0,13.4,0002.5,0008.40,0017.90,0007.31
2021-09-24 14:12:00,,0833.0,4.98,0.00,30.3,29.4,00.0,39.4,32.0,13.5,0002.2,0008.19,0018.20,0007.05
2021-09-24 14:13:00,,0833.0,5.00,0.00,30.3,29.3,00.0,39.5,32.0,13.5,0002.2,0007.92,0016.89,0006.79
2021-09-24 14:14:00,,0833.0,5.00,0.00,30.3,29.4,00.0,39.5,32.0,13.5,0002.0,0007.59,0016.23,0006.51
2021-09-24 14:15:00,,0833.1,5.01,0.00,30.3,29.3,00.0,39.5,32.0,13.6,0001.9,0007.28,0015.62,0006.27
2021-09-24 14:16:00,,0833.1,4.99,0.00,30.3,29.4,00.0,39.4,32.0,13.6,0002.1,0006.99,0015.60,0006.02
2021-09-24 14:17:00,,0833.1,5.00,0.00,30.3,29.3,00.0,39.5,32.0,13.6,0002.3,0006.74,0015.37,0005.79
2021-09-24 14:18:00,,0833.1,5.01,0.00,30.3,29.3,00.0,39.5,32.0,13.6,0002.7,0006.53,0014.96,0005.60
2021-09-24 14:19:00,,0833.2,4.99,0.00,30.3,29.3,00.0,39.5,32.0,13.6,0002.8,0006.27,0014.24,0005.39
2021-09-24 14:20:00,,0833.1,5.00,0.00,30.3,29.3,00.0,39.5,32.0,13.6,0003.1,0006.08,0014.27,0005.21
2021-09-24 14:21:00,,0833.2,5.00,0.00,30.3,29.3,00.0,39.5,32.0,13.6,0003.1,0005.95,0015.04,0005.08
2021-09-24 14:22:00,,0833.2,5.01,0.00,30.3,29.3,00.0,39.5,32.0,13.7,0003.1,0005.82,0015.23,0004.98
2021-09-24 14:23:00,,0833.3,4.99,0.00,30.3,29.3,00.0,39.5,32.0,13.6,0003.5,0005.69,0015.89,0004.90
2021-09-24 14:24:00,,0833.3,5.00,0.00,30.3,29.4,00.0,39.5,32.0,13.6,0003.5,0005.63,0016.33,0004.85
2021-09-24 14:25:00,,0833.3,5.00,0.00,30.3,29.4,00.0,39.5,32.0,13.6,0003.4,0005.61,0016.95,0004.81
2021-09-24 14:26:00,,0833.3,5.00,0.00,30.3,29.4,00.0,39.5,32.0,13.6,0003.6,0005.59,0017.33,0004.74
2021-09-24 14:27:00,,0833.3,5.00,0.00,30.3,29.4,00.0,39.5,32.0,13.7,0003.7,0005.55,0016.79,0004.68
2021-09-24 14:28:00,,0833.3,5.01,0.00,30.3,29.4,00.0,39.5,32.0,13.6,0003.6,0005.46,0016.30,0004.60
2021-09-24 14:29:00,,0833.5,4.99,0.00,30.3,29.4,00.0,39.5,32.0,13.7,0003.5,0005.39,0016.08,0004.53
2021-09-24 14:30:00,,0833.5,5.01,0.00,30.3,29.4,00.0,39.5,32.0,13.7,0003.4,0005.40,0016.26,0004.48
2021-09-24 14:31:00,,0833.5,4.99,0.00,30.3,29.4,00.0,39.5,32.0,13.7,0003.4,0005.34,0015.95,0004.45
2021-09-24 14:32:00,,0833.4,5.01,0.00,30.3,29.4,00.0,39.5,32.0,13.8,0003.3,0005.26,0015.46,0004.42
2021-09-24 14:33:00,,0833.4,5.00,0.00,30.3,29.5,00.0,39.5,32.0,13.8,0003.2,0005.22,0015.22,0004.39
2021-09-24 14:34:00,,0833.4,4.99,0.00,30.3,29.5,00.0,39.5,32.1,13.7,0002.8,0005.15,0013.15,0004.32
2021-09-24 14:35:00,,0833.4,4.99,0.00,30.3,29.5,00.0,39.5,32.1,13.7,0002.7,0005.05,0012.21,0004.24
2021-09-24 14:36:00,,0833.4,5.00,0.00,30.3,29.5,00.0,39.5,32.1,13.7,0002.6,0004.95,0011.83,0004.17
2021-09-24 14:37:00,,0833.4,5.00,0.00,30.3,29.5,00.0,39.5,32.1,13.7,0002.5,0004.88,0011.43,0004.11
2021-09-24 14:38:00,,0833.5,4.99,0.00,30.4,29.5,00.0,39.5,32.1,13.7,0002.4,0004.83,0011.90,0004.05
2021-09-24 14:39:00,,0833.5,4.99,0.00,30.4,29.5,00.0,39.5,32.1,13.8,0002.2,0004.83,0012.91,0004.03
2021-09-24 14:40:00,,0833.6,5.01,0.00,30.4,29.5,00.0,39.5,32.1,13.8,0000.7,0004.79,0013.46,0003.99
2021-09-24 14:41:00,,0833.6,5.00,0.00,30.4,29.5,00.0,39.5,32.1,13.8,0000.0,0004.74,0013.55,0003.95
2021-09-24 14:42:00,,0833.6,5.00,0.00,30.4,29.5,00.0,39.5,32.1,13.8,0000.0,0004.71,0013.59,0003.92
2021-09-24 14:43:00,,0833.7,5.00,0.00,30.4,29.6,00.0,39.5,32.1,13.9,0000.0,0004.70,0013.70,0003.88
2021-09-24 14:44:00,,0833.6,5.01,0.00,30.4,29.6,00.0,39.6,32.1,13.9,0000.0,0004.64,0013.04,0003.82
2021-09-24 14:45:00,,0833.7,5.00,0.00,30.4,29.6,00.0,39.6,32.2,13.9,0000.0,0004.60,0013.02,0003.78
2021-09-24 14:46:00,,0833.7,4.99,0.00,30.4,29.6,00.0,39.6,32.1,13.9,0000.0,0004.56,0013.15,0003.76
2021-09-24 14:47:00,,0833.7,5.01,0.00,30.4,29.6,00.0,39.6,32.2,13.9,0000.0,0004.54,0013.36,0003.73
2021-09-24 14:48:00,,0833.7,4.99,0.00,30.4,29.6,00.0,39.6,32.2,13.9,0000.0,0004.56,0013.65,0003.71
2021-09-24 14:49:00,,0833.8,5.00,0.00,30.5,29.6,00.0,39.6,32.2,13.9,0000.0,0004.56,0013.65,0003.70
2021-09-24 14:50:00,,0833.8,5.00,0.00,30.4,29.6,00.0,39.6,32.2,13.9,0000.0,0004.50,0012.96,0003.68
2021-09-24 14:51:00,,0833.9,4.99,0.00,30.5,29.6,00.0,39.6,32.2,13.9,0001.6,0004.49,0012.70,0003.66
2021-09-24 14:52:00,,0833.8,5.01,0.00,30.5,29.6,00.0,39.6,32.2,14.0,0000.4,0004.49,0012.51,0003.66
2021-09-24 14:53:00,,0833.9,5.01,0.00,30.5,29.6,00.0,39.6,32.2,14.0,0000.0,0004.48,0013.08,0003.65
2021-09-24 14:54:00,,0833.9,5.00,0.00,30.5,29.7,00.0,39.6,32.3,14.0,0000.0,0004.45,0012.53,0003.64
2021-09-24 14:55:00,,0833.9,5.00,0.00,30.5,29.7,00.0,39.6,32.3,14.0,0000.9,0004.44,0012.42,0003.62
2021-09-24 14:56:00,,0833.9,5.00,0.00,30.5,29.7,00.0,39.6,32.3,14.0,0002.0,0004.42,0012.52,0003.61
2021-09-24 14:57:00,,0833.9,5.00,0.00,30.5,29.7,00.0,39.7,32.3,14.1,0002.1,0004.40,0012.79,0003.60
2021-09-24 14:58:00,,0834.0,5.00,0.00,30.6,29.7,00.0,39.7,32.3,14.1,0002.0,0004.40,0012.17,0003.59
2021-09-24 14:59:00,,0834.0,5.00,0.00,30.6,29.7,00.0,39.7,32.3,14.1,0000.4,0004.33,0011.17,0003.56
